CST,Max TemperatureF,Mean TemperatureF,Min TemperatureF,Max Dew PointF,MeanDew PointF,Min DewpointF,Max Humidity, Mean Humidity, Min Humidity, Max Sea Level PressureIn, Mean Sea Level PressureIn, Min Sea Level PressureIn, Max VisibilityMiles, Mean VisibilityMiles, Min VisibilityMiles, Max Wind SpeedMPH, Mean Wind SpeedMPH, Max Gust SpeedMPH,PrecipitationIn, CloudCover, Events, WindDirDegrees
2012-11-1,26,24,23,25,22,19,100,87,80,30.16,30.13,30.10,10,10,10,18,14,24,0.00,8,,30
2012-11-2,26,24,23,27,25,23,100,100,100,30.14,30.12,30.09,10,6,0,14,9,,0.56,8,Snow,104
2012-11-3,28,26,23,28,27,23,100,100,100,30.23,30.19,30.13,10,4,0,9,7,,0.07,8,Fog-Snow,57
2012-11-4,32,29,26,32,29,27,100,99,87,30.21,30.18,30.15,10,4,0,6,1,,0.00,8,Fog,92
2012-11-5,37,32,26,37,32,27,100,100,100,30.21,29.96,29.65,10,5,0,24,9,30,0.02,8,Fog-Rain-Snow,210
2012-11-6,41,36,32,37,34,32,100,93,81,30.02,29.86,29.68,10,10,8,29,19,36,0.00,6,Rain,315
2012-11-7,39,31,23,36,32,23,100,95,75,30.03,29.88,29.69,10,10,10,23,9,30,0.00,3,,176
2012-11-8,39,32,23,37,30,23,100,96,86,30.22,29.98,29.67,10,10,5,25,17,32,0.00,8,Rain,358
2012-11-9,23,20,17,23,18,10,100,90,73,30.23,30.14,29.98,10,8,2,25,20,33,0.00,8,Rain-Snow,51
2012-11-10,26,24,19,27,23,19,100,100,100,29.97,29.74,29.56,9,2,1,18,16,26,6.25,8,Rain-Snow,7
2012-11-11,19,14,10,19,15,9,100,95,86,29.73,29.65,29.56,10,5,1,24,18,31,2.33,8,Rain-Snow,295
2012-11-12,14,10,6,12,7,3,100,89,79,30.06,29.95,29.74,10,7,2,26,20,32,0.07,5,Rain-Snow,279
2012-11-13,17,11,5,16,9,1,100,90,79,30.19,30.13,30.06,10,8,5,10,7,,0.00,3,,209
2012-11-14,26,17,8,27,20,7,100,98,79,30.16,30.03,29.93,10,6,0,15,8,,0.00,5,Fog,195
2012-11-15,24,15,6,23,13,5,100,90,80,30.38,30.27,29.98,10,10,4,18,12,24,0.00,0,,265
2012-11-16,32,24,17,28,21,14,100,84,60,30.31,30.11,29.98,10,10,10,23,16,30,0.00,0,Rain,188
2012-11-17,32,24,15,32,23,16,100,99,93,30.07,30.02,29.98,10,7,0,9,4,,0.00,3,Fog,141
2012-11-18,33,25,17,34,26,18,100,100,100,30.00,29.91,29.83,10,3,0,15,7,,0.00,3,Fog-Rain,142
2012-11-19,32,24,15,32,26,16,100,98,87,30.12,30.00,29.83,10,7,3,16,9,,0.00,1,,278
2012-11-20,37,28,19,34,29,19,100,89,75,30.09,29.91,29.81,10,10,5,21,14,25,0.00,0,,205
2012-11-21,35,32,28,34,32,28,100,99,87,29.85,29.73,29.54,10,8,0,16,9,,0.00,3,Fog,62
2012-11-22,28,18,8,28,16,5,100,94,79,30.29,29.91,29.56,10,6,0,25,19,32,0.03,8,Fog-Rain-Snow,339
2012-11-23,8,6,5,7,5,1,92,88,85,30.44,30.37,30.25,10,7,1,25,16,30,0.15,8,Rain-Snow,322
2012-11-24,26,14,3,25,15,1,100,91,79,30.25,29.88,29.68,10,9,0,26,16,31,0.00,7,Rain-Snow,215
2012-11-25,23,12,0,23,9,-4,100,89,73,30.25,30.00,29.83,10,8,1,21,15,28,0.16,5,Rain-Snow,323
2012-11-26,26,10,-5,25,6,-11,100,88,77,30.30,30.19,30.06,10,9,1,21,11,25,0.00,5,Snow,256
2012-11-27,24,17,10,25,12,7,100,90,79,30.18,30.10,30.04,10,8,1,15,10,22,0.20,7,Snow,316
2012-11-28,26,16,5,27,15,1,100,94,85,30.18,30.09,29.99,10,8,1,26,14,25,0.00,6,,278
2012-11-29,10,8,5,9,4,1,92,86,79,30.19,30.16,30.12,10,8,4,23,15,26,0.00,7,,65
2012-11-30,28,19,10,28,20,9,100,97,79,30.13,29.95,29.71,10,4,0,21,14,26,0.00,8,Fog,152